Find Starlink 32124

NORAD ID: 60298 Int'l Des: 2024-132 Owner: SPXS Country: US Constellation: starlink operational
LEOCIRCULAR

Current View

Loading 3D Globe...

About Starlink 32124

Starlink 32124 (NORAD 60298) is a starlink constellation satellite (v2 mini) launched Jul 28, 2024 by SPXS of US. It operates in LEO, CIRCULAR orbit with a mass of 730.00 kg.

About Starlink 32124

Description loading...

Upcoming Passes

Passes for default location (London). Set your location on the main map for personalized predictions.

Altitude History

Loading altitude history...

Two-Line Element Set

1 60298U 24132W 26175.00436010 -.00000672 00000-0 -98969-5 0 9995
2 60298 53.1580 278.1867 0000803 80.4287 279.6805 15.31701745107849
Epoch: Jun 24, 2026 • Age: 26 hours

Current Status

Altitude 473.3 km
Velocity 7.63 km/s
Sub-Earth Point -8.68°S, 156.62°E
Launch Date Jul 28, 2024
Age 1.9 years
Type internet

Technical Details

Classification Payload
Mass 730.00 kg
Dry Mass 700.00 kg
Total Mass 730.00 kg
Length 0.30 m
Diameter 4.10 m
Span 29.00 m
Shape Box + pan
Manufacturer SPXS
Bus Type Starlink V2M
Phase Status In Orbit
Owner/State SPXS/US

Most Searched